User: anonymous   Login
Location: Home
(42.5358°N, 72.7383°W)
Time: 00:23:13
(UTC-05:00)
Language:

First-Move - Orbit

View from above orbital plane
View from above orbital plane
View from above satellite
View from above satellite

Ground track
Ground track

The orbit data is extracted from the following two-line orbital elements,

1 39439U 13066Z   22024.48177042  .00001208  00000-0  14922-3 0  9999
2 39439  97.6220   4.6676 0064686 151.9204 208.5525 14.83127404440703
Epoch (UTC): 24 January 2022 11:33:44
Eccentricity: 0.0064686
inclination: 97.6220°
perigee height: 574 km
apogee height: 665 km
right ascension of ascending node: 4.6676°
argument of perigee: 151.9204°
revolutions per day: 14.83127404
mean anomaly at epoch: 208.5525°
orbit number at epoch: 44070

The dashed part of the orbit path shows where the satellite is in the earth's shadow,  

DLR